TURKSAT 4B

Last updated on Tue Sep 16 2025 00:02:48 GMT+0000 (Coordinated Universal Time)

1 40984U 15060A 25258.52312902 .00000000 00000+0 00000+0 0 9991 2 40984 0.0222 149.4419 0002140 37.6317 45.9571 1.00269730 36344
UTC large
Height (km)
Speed (km/s)
/
Latitude / Longitude
Inclination (degrees)
Orbital Period (minutes)
Azimuth
Elevation
Range (km)
Doppler Factor

Next 0 passes for location: London (51.5072 / 0.1276)

Sorry there are no passes over London.